Location: Ceska republika
(50.0000°N, 15.0000°E)
Time: 17:04:33
(UTC+02:00)

ISS - Pass Details

Date: 16 October 2017
Orbit: 401 x 408 km, 51.6° (Epoch: 19 October)

Event Time Altitude Azimuth Distance (km) Brightness Sun altitude
Rises 19:06:08 0° 280° (W) 2,324 1.9 -10.3°
Reaches altitude 10° 19:09:07 10° 251° (WSW) 1,461 0.3 -10.8°
Maximum altitude 19:10:38 13° 223° (SW) 1,309 -0.6 -11.0°
Drops below altitude 10° 19:12:08 10° 195° (SSW) 1,459 -0.8 -11.3°
Sets 19:15:07 0° 165° (SSE) 2,315 -0.1 -11.7°
